MUOS-5

Last updated on Thu Oct 30 2025 00:02:50 GMT+0000 (Coordinated Universal Time)

1 41622U 16041A 25302.49275500 -.00000117 00000+0 00000+0 0 9999 2 41622 2.7187 298.3077 0201887 261.5318 270.6993 1.00270634 34770
UTC large
Height (km)
Speed (km/s)
/
Latitude / Longitude
Inclination (degrees)
Orbital Period (minutes)
Azimuth
Elevation
Range (km)
Doppler Factor

Next 0 passes for location: London (51.5072 / 0.1276)

Sorry there are no passes over London.